Home > Time Zones > World Clock > Weather > Russia > Perm > Past weeks

Flag for Russia Weather past 2 weeks in Perm, Russia

Now
48 °F

Partly sunny.


Feels Like: 46 °F
Forecast: 37 / 44 °F
Wind: 6 mph from South

Location: Perm'/Bolshoe Savino

Current Time: Oct 1, 2014 at 6:44:05 PM

Latest Report: Oct 1, 2014 at 6:00 PM


Visibility: N/A

Pressure: 29.42 "Hg

Humidity: 76%

Dew point: 41 °F

Location of PermLocation

Historic Weather in Perm — Graph

°F

Perm temperature yesterday

Maximum temperature yesterday: 50 °F (at 7:00 PM)
Minimum temperature yesterday: 36 °F (at 7:30 AM)
Average temperature yesterday: 43 °F

Past Weeks' High & Low Weather Summary

 TemperatureHumidityPressure
High68 °F (Sep 23, 2:30 PM)100% (Sep 16, 10:30 PM)30.18 "Hg (Sep 16, 10:30 PM)
Low34 °F (Sep 18, 4:30 AM)32% (Sep 25, 2:00 PM)29.36 "Hg (Oct 1, 8:00 AM)
Average48 °F79%29.98 "Hg
* Reported Sep 16 5:00 PM — Oct 1 5:30 PM, Perm, Weather by CustomWeather, © 2014

Note: Actual official high and low records may vary slightly from our data, if they occured in-between our weather recording intervals... More about our weather records

Advertising

Perm weather history for previous 24 hours

 ConditionsComfort  
Time TempWeatherWind HumidityBarometerVisibility
5:30 PM
Oct 1
46 °FPartly sunny.6 mph82%29.42 "HgN/A
5:00 PM48 °FPartly sunny.8 mph71%29.42 "HgN/A
4:30 PM50 °FPartly sunny.6 mph67%29.42 "HgN/A
4:00 PM50 °FPartly sunny.10 mph62%29.42 "HgN/A
3:30 PM48 °FSprinkles. Partly sunny.8 mph71%29.39 "HgN/A
3:00 PM50 °FPartly sunny.8 mph67%29.39 "HgN/A
2:30 PM48 °FPartly sunny.10 mph71%29.39 "HgN/A
2:00 PM48 °FPartly sunny.8 mph71%29.39 "HgN/A
1:30 PM48 °FPartly sunny.10 mph71%29.39 "HgN/A
1:00 PM48 °FPartly sunny.10 mph71%29.39 "HgN/A
12:30 PM48 °FPartly sunny.10 mph76%29.39 "HgN/A
12:00 PM46 °FPartly sunny.8 mph82%29.39 "HgN/A
11:30 AM46 °FPartly sunny.10 mph87%29.39 "HgN/A
11:00 AM46 °FBroken clouds.8 mph87%29.39 "HgN/A
10:30 AM45 °FPartly sunny.13 mph93%29.39 "HgN/A
10:00 AM46 °FSprinkles. Mostly cloudy.15 mph93%29.36 "HgN/A
9:30 AM46 °FLight rain. Mostly cloudy.8 mph100%29.36 "HgN/A
9:00 AM46 °FLight rain. Mostly cloudy.8 mph100%29.36 "HgN/A
8:30 AM46 °FLight rain. Mostly cloudy.10 mph100%29.36 "HgN/A
8:00 AM46 °FLight rain. Mostly cloudy.13 mph100%29.36 "Hg6 mi
7:30 AM46 °FLight rain. Mostly cloudy.13 mph100%29.39 "Hg4 mi
7:00 AM46 °FLight rain. Mostly cloudy.10 mph100%29.39 "Hg4 mi
6:30 AM46 °FLight rain. Mostly cloudy.10 mph100%29.42 "Hg4 mi
6:00 AM46 °FLight rain. Mostly cloudy.8 mph100%29.42 "Hg5 mi
5:30 AM46 °FLight rain. Mostly cloudy.10 mph100%29.42 "Hg6 mi
5:00 AM46 °FLight rain. Mostly cloudy.8 mph100%29.45 "HgN/A
4:30 AM46 °FMostly cloudy.8 mph100%29.45 "HgN/A
4:00 AM48 °FClear.8 mph94%29.45 "Hg10 mi
3:30 AM46 °FLight rain. Mostly cloudy.8 mph100%29.47 "HgN/A
2:30 AM46 °FMostly cloudy.6 mph100%29.50 "HgN/A
2:00 AM48 °FMostly cloudy.8 mph94%29.50 "HgN/A
1:30 AM48 °FMostly cloudy.8 mph94%29.53 "HgN/A
1:00 AM48 °FLight rain. Mostly cloudy.8 mph94%29.53 "HgN/A
12:30 AM48 °FMostly cloudy.8 mph94%29.53 "HgN/A
12:00 AM48 °FMostly cloudy.8 mph94%29.56 "HgN/A
11:30 PM
Sep 30
48 °FMostly cloudy.6 mph100%29.56 "HgN/A
11:00 PM48 °FLight rain. Mostly cloudy.8 mph100%29.59 "Hg6 mi
10:30 PM48 °FMostly cloudy.6 mph100%29.59 "Hg6 mi
10:00 PM48 °FOvercast.6 mph94%29.59 "HgN/A
9:30 PM48 °FMostly cloudy.8 mph94%29.62 "Hg5 mi
9:00 PM48 °FSprinkles. Mostly cloudy.3 mph94%29.62 "HgN/A
8:30 PM50 °FSprinkles. Mostly cloudy.6 mph88%29.62 "HgN/A
8:00 PM48 °FMostly cloudy.6 mph94%29.62 "HgN/A
7:30 PM50 °FMore clouds than sun.6 mph88%29.62 "HgN/A
7:00 PM50 °FMostly cloudy.6 mph94%29.65 "HgN/A
6:30 PM48 °FSprinkles. Mostly cloudy.8 mph94%29.65 "Hg5 mi
6:00 PM48 °FLight rain. Overcast.8 mph94%29.65 "HgN/A
Weather by CustomWeather, © 2014

See weather overviewHow to use our weather pages